User: anonymous   Login
Location: Black Rock Desert
(40.7548°N, 119.2364°W)
Time: 19:09:17
(UTC-07:00)
Language:

Cosmos 1340 Rocket - Orbit

View from above orbital plane
View from above orbital plane
View from above satellite
View from above satellite

Ground track
Ground track

The orbit data is extracted from the following two-line orbital elements,

1 13068U 82013B   16210.16750303 -.00000053  00000-0 -51042-5 0  9994
2 13068  81.2022 232.2866 0020849 307.4012  52.5313 15.06648752874703
Epoch (UTC): 28 July 2016 04:01:12
Eccentricity: 0.0020849
inclination: 81.2022°
perigee height: 532 km
apogee height: 561 km
right ascension of ascending node: 232.2866°
argument of perigee: 307.4012°
revolutions per day: 15.06648752
mean anomaly at epoch: 52.5313°
orbit number at epoch: 87470

The dashed part of the orbit path shows where the satellite is in the earth's shadow,  

DLR